Lid_Strength_Index
3 3 3 3 3 3 3 2 3 2 2 2 2 2 1 1 1 2 6 3 2 1 1 3 3 5 4 5 5 6 9 11 10 10 8 7 7 5 4 6 5 5 5 4 2
3 3 3 3 3 3 3 3 3 3 2 2 2 2 2 1 3 5 1 0 -0 -0 3 5 7 6 5 5 6 7 9 9 9 9 8 7 6 5 6 7 7 6 4 3 2
4 4 3 3 3 3 2 3 3 3 3 2 2 2 1 1 6 5 1 -0 -0 -1 1 4 5 6 6 6 6 7 9 7 8 9 8 8 7 6 6 8 6 7 6 4 3
5 5 4 4 3 3 3 3 2 3 3 2 2 2 1 3 11 4 -1 -0 -0 -0 2 5 6 7 7 8 6 8 7 6 7 8 9 8 6 6 6 6 5 4 4 4 4
5 5 5 4 4 3 3 3 3 2 3 3 2 2 3 6 6 2 -0 -0 -0 1 3 6 7 7 7 7 7 8 7 6 6 6 9 8 8 6 6 5 4 4 4 4 4
4 4 4 4 3 3 3 3 3 3 2 2 2 2 4 9 2 1 3 0 1 3 4 6 7 6 6 6 7 6 7 6 6 6 8 9 8 6 6 4 5 5 5 4 4
4 4 4 3 3 3 2 3 3 3 2 2 1 2 5 6 2 2 3 3 2 3 5 5 6 6 6 7 6 7 8 7 6 6 7 8 9 8 6 5 6 5 5 4 4
5 4 4 4 3 3 3 2 2 2 1 1 1 3 8 2 1 3 3 3 3 2 4 5 6 6 6 6 7 8 8 10 6 6 7 8 10 8 5 7 6 6 5 5 4
5 5 4 4 4 3 3 3 2 1 1 1 3 4 8 1 3 3 2 4 3 3 4 5 6 7 8 9 10 9 12 11 9 6 6 7 9 8 6 6 6 5 5 4 4
5 5 4 4 4 4 3 2 2 2 2 2 2 6 4 6 3 3 3 4 4 5 6 8 8 9 10 10 14 12 12 11 10 8 6 8 8 7 6 6 6 5 4 4 4
5 5 5 4 4 3 3 6 6 5 4 6 6 6 5 3 3 5 4 3 5 7 11 10 11 12 11 9 9 10 11 11 9 7 7 8 8 7 6 6 6 5 5 4 4
4 4 4 4 3 3 4 7 6 3 8 4 4 4 3 3 7 6 3 6 8 11 10 12 13 9 10 10 10 11 11 11 9 7 7 9 8 7 6 6 5 5 5 4 4
4 4 4 4 3 5 5 5 2 2 8 6 4 5 5 4 8 7 4 5 9 11 11 13 12 11 10 11 11 11 12 11 10 8 7 8 9 9 7 6 5 5 4 4 4
4 4 4 3 6 5 6 3 1 2 12 10 8 6 4 4 8 5 4 5 8 11 11 12 10 12 11 11 11 12 10 10 10 10 12 8 13 10 8 8 6 5 5 4 4
4 5 4 4 6 7 5 2 2 3 20 9 8 2 4 7 6 6 4 5 9 9 9 11 12 12 12 11 10 11 9 9 10 10 10 11 11 9 8 8 7 6 5 4 3
4 4 4 5 4 5 3 3 3 13 20 12 8 9 9 7 7 6 6 4 5 8 8 8 7 9 9 9 8 7 8 9 9 10 14 11 11 11 9 8 7 5 5 4 4
4 4 6 5 7 4 4 5 13 17 9 13 12 9 9 10 9 7 8 8 10 12 12 9 9 8 7 9 7 7 9 13 14 14 15 11 12 10 8 7 6 5 5 4 4
5 5 6 5 3 3 5 9 16 12 13 10 10 10 12 9 9 8 9 10 8 8 11 12 13 10 8 9 11 9 10 13 17 16 14 11 14 11 7 6 6 5 5 4 4
6 6 4 4 3 3 7 14 14 13 11 12 11 13 13 9 9 9 9 9 8 8 11 11 12 8 8 7 8 10 11 8 12 12 13 12 10 8 7 7 7 6 5 5 4
8 7 5 3 3 5 9 13 12 9 9 10 15 12 13 11 10 10 10 8 8 7 7 9 12 8 8 7 7 8 7 12 11 15 16 13 13 11 10 8 7 7 6 5 4
7 8 5 2 2 6 13 12 11 8 8 11 12 13 11 10 10 10 10 8 7 7 6 8 9 10 8 9 10 9 10 9 9 11 14 15 13 8 8 8 8 7 6 5 5
8 11 4 2 8 8 11 10 9 9 7 9 9 11 11 10 10 10 10 8 6 6 9 7 9 11 10 7 6 7 8 8 12 13 12 12 11 8 8 7 7 7 5 5 5
10 9 4 4 12 12 10 9 9 9 9 10 11 9 9 11 11 9 8 6 6 7 8 7 10 13 12 9 8 9 8 8 9 10 13 14 11 8 8 8 7 7 6 5 5
10 12 9 7 7 11 11 11 11 8 9 9 10 9 10 11 9 11 9 8 7 6 5 6 10 11 13 11 9 10 9 8 9 13 12 11 10 10 9 9 8 7 6 5 5
10 12 10 13 10 11 10 10 12 12 9 8 10 10 11 13 11 12 10 9 7 7 7 7 11 11 11 10 10 10 9 9 9 9 11 9 10 9 9 8 7 6 6 6 6
12 12 10 11 9 10 11 11 11 11 10 10 11 10 10 12 11 12 11 10 10 8 8 8 12 11 13 10 10 11 10 9 9 10 10 10 11 7 7 6 7 6 6 7 8
9 8 10 10 10 10 11 11 11 10 9 9 9 10 11 10 8 7 7 8 8 9 9 9 11 12 14 12 11 13 11 10 10 9 9 11 10 8 8 7 7 7 7 8 8